#timestamp,LO_Frequency,Hit 
1499248815.1,286046998.0,N
1499248835.8,286046996.1,N
1499248855.7,286046995.7,N
1499248875.5,286046995.9,N
1499248895.4,286046995.6,N
1499248915.2,286046995.9,N
1499248935.0,286046993.7,N
1499248935.9,286046993.7,N
1499248955.8,286046993.8,N
1499248975.6,286046993.4,N
1499248995.4,286046996.1,N
1499249015.3,286046995.8,N
1499249035.1,286046996.1,N
1499249055.9,286046994.7,N
1499249075.7,286046994.8,N
1499249095.5,286046991.7,N
1499249115.4,286046992.2,N
1499249135.2,286046992.1,N
1499249155.0,286046992.9,N
1499249155.9,286046992.9,N
1499249175.8,286046992.3,N
1499249195.6,286046994.8,N
1499249215.5,286046992.7,N
1499249235.3,286046992.5,N
1499249255.1,286046992.9,N
1499249275.9,286046990.5,N
1499249295.7,286046991.0,N
1499249315.5,286046991.4,N
1499249335.4,286046990.4,N
1499249355.2,286046991.3,N
1499249375.1,286046990.8,N
1499249376.0,286046990.8,N
1499249395.8,286046993.1,N
1499249415.6,286046991.0,N
1499249435.5,286046990.4,N
1499249455.3,286046990.8,N
1499249475.1,286046990.4,N
1499249495.9,286046988.9,N
1499249515.7,286046991.6,N
1499249535.5,286046989.1,N
1499249555.4,286046989.4,N
1499249575.2,286046987.4,N
1499249595.1,286046987.4,N
1499249596.0,286046987.4,N
1499249615.8,286046989.7,N
1499249635.6,286046989.9,N
1499249655.5,286046989.3,N
1499249675.3,286046990.0,N
1499249695.1,286046989.5,N
1499249715.9,286046989.4,N
1499249735.7,286046984.7,N
1499249755.6,286046981.2,N
1499249775.4,286046983.8,N
1499249795.2,286046985.1,N
1499249815.1,286046986.6,N
1499249816.0,286046986.6,N
1499249835.8,286046985.4,N
1499249855.6,286046985.8,N
1499249875.5,286046988.0,N
1499249895.3,286046988.3,N
1499249915.2,286046987.5,N
1499249935.9,286046989.9,N
1499249955.7,286046987.1,N
1499249975.6,286046985.5,N
1499249995.4,286046987.7,N
1499250015.2,286046985.4,N
1499250035.1,286046988.4,N
1499250036.0,286046988.4,N
1499250055.8,286046988.4,N
1499250075.7,286046985.8,N
1499250095.5,286046986.4,N
1499250115.3,286046985.7,N
1499250135.2,286046986.6,N
1499250155.0,286046985.4,N
1499250155.9,286046985.4,N
1499250175.7,286046986.1,N
1499250195.6,286046985.5,N
1499250215.4,286046985.7,N
1499250235.3,286046986.6,N
1499250255.1,286046986.3,N
1499250256.0,286046986.3,N
1499250275.8,286046984.2,N
1499250295.7,286046983.7,N
1499250315.5,286046985.9,N
1499250335.3,286046983.8,N
1499250355.2,286046986.5,N
1499250375.0,286046986.6,N
1499250375.9,286046986.6,N
1499250395.8,286046986.2,N
1499250415.6,286046986.4,N
1499250435.4,286046983.7,N
1499250455.3,286046985.0,N
1499250475.1,286046984.0,N
1499250495.8,286046985.2,N
1499250515.7,286046984.7,N
1499250535.5,286046986.5,N
1499250555.4,286046986.6,N
1499250575.2,286046984.3,N
1499250595.0,286046985.1,N
1499250595.9,286046985.1,N
1499250615.8,286046985.2,N
1499250635.6,286046984.8,N
1499250655.4,286046984.7,N
1499250675.3,286046982.6,N
1499250695.1,286046980.6,N
1499250715.9,286046982.6,N
1499250735.7,286046984.0,N
1499250755.5,286046984.3,N
1499250775.4,286046984.4,N
1499250795.2,286046984.9,N
1499250815.0,286046982.4,N
1499250815.9,286046982.4,N
1499250835.8,286046983.1,N
1499250855.6,286046981.1,N
1499250875.4,286046981.1,N
1499250895.3,286046981.4,N
1499250915.1,286046980.8,N
1499250935.9,286046979.4,N
1499250955.7,286046978.6,N
1499250975.5,286046975.4,N
1499250995.4,286046974.0,N
1499251015.2,286046972.5,N
1499251035.0,286046972.8,N
1499251035.9,286046972.8,N
1499251055.8,286046975.2,N
1499251075.6,286046974.4,N
1499251095.5,286046974.9,N
1499251115.3,286046974.2,N
1499251135.1,286046976.2,N
1499251155.9,286046977.9,N
1499251175.7,286046978.8,N
1499251195.5,286046978.8,N
1499251215.4,286046978.7,N
1499251235.2,286046978.2,N
1499251255.0,286046976.3,N
1499251256.0,286046976.3,N
1499251275.8,286046976.9,N
1499251295.6,286046976.7,N
1499251315.5,286046975.8,N
1499251335.3,286046975.8,N
1499251355.1,286046976.4,N
1499251375.9,286046978.4,N
1499251395.7,286046977.4,N
1499251415.5,286046976.2,N
1499251435.4,286046976.1,N
1499251455.2,286046978.2,N
1499251475.1,286046974.5,N
1499251476.0,286046974.5,N
1499251495.8,286046974.5,N
1499251515.6,286046972.5,Y
1499251535.5,286046985.2,N
1499251555.3,286046984.5,N
1499251575.2,286046984.7,N
1499251595.9,286046982.2,N
1499251615.7,286046982.1,N
1499251635.6,286046984.9,N
1499251655.4,286046984.8,N
1499251675.2,286046984.0,N
1499251695.1,286046984.0,N
1499251696.0,286046984.0,N
1499251715.8,286046986.4,N
1499251735.6,286046984.6,N
1499251755.5,286046985.0,N
1499251775.3,286046982.2,N
1499251795.2,286046983.8,N
1499251815.9,286046984.2,N
1499251835.7,286046985.0,N
1499251855.6,286046984.6,N
1499251875.4,286046984.0,N
1499251895.2,286046984.7,N
1499251915.1,286046985.0,N
1499251916.0,286046985.0,N
1499251935.8,286046984.9,N
1499251955.7,286046982.9,N
1499251975.5,286046982.7,N
1499251995.3,286046982.2,N
1499252015.2,286046985.2,N
1499252035.0,286046985.0,N
1499252035.9,286046985.0,N
1499252055.7,286046982.6,N
1499252075.6,286046984.9,N
1499252095.4,286046984.1,N
1499252115.3,286046984.3,N
1499252135.1,286046984.5,N
1499252136.0,286046984.5,N
1499252155.8,286046985.1,N
1499252175.7,286046987.6,N
1499252195.5,286046984.1,N
1499252215.3,286046985.0,N
1499252235.2,286046983.6,N
1499252255.0,286046981.7,N
1499252255.9,286046981.7,N
1499252275.8,286046978.9,Y
1499252295.6,286046996.2,N
1499252315.4,286046993.3,N
1499252335.3,286046993.3,N
1499252355.1,286046993.7,N
1499252375.9,286046993.5,N
1499252395.7,286046995.8,N
